Location: Chervonnoye
(48.6000°N, 34.4000°E)
Time: 12:58:31
(UTC+00:00)

deb Kosmos-2237 - Pass Details

Date: 20 June 2021
Orbit: 850 x 1045 km, 71.0° (Epoch: 25 July)

Event Time Altitude Azimuth Distance (km) Brightness Sun altitude
Rises 20:40:59 0° 257° (WSW) 3,609 ? -16.6°
Reaches altitude 10° 20:44:06 10° 273° (W) 2,702 ? -16.7°
Maximum altitude 20:48:54 22° 323° (NW) 2,008 ? -16.9°
Drops below altitude 10° 20:53:53 10° 12° (NNE) 2,808 ? -17.1°
Sets 20:57:12 0° 27° (NNE) 3,787 ? -17.2°
